Location: Newark
(39.5667°N, 8.9833°E)
Time: 02:37:22
(UTC+00:00)

Transit 2A - Pass Details

Date: 24 October 2019
Orbit: 601 x 957 km, 66.7° (Epoch: 20 November)

Event Time Altitude Azimuth Distance (km) Brightness Sun altitude
Rises 18:01:26 0° 224° (SW) 3,368 10.0 -17.7°
Reaches altitude 10° 18:04:05 10° 230° (SW) 2,380 9.3 -18.2°
Maximum altitude 18:09:17 46° 303° (WNW) 1,007 7.0 -19.2°
Drops below altitude 10° 18:14:02 10° 17° (NNE) 2,165 8.2 -20.1°
Enters shadow 18:14:54 - 20° (NNE) 2,483 8.5 -20.3°
Sets 18:16:21 0° 23° (NNE) 3,035 - -20.6°
